TimeCDT,TemperatureF,Dew PointF,Humidity,Sea Level PressureIn,VisibilityMPH,Wind Direction,Wind SpeedMPH,Gust SpeedMPH,PrecipitationIn,Events,Conditions,WindDirDegrees,DateUTC
12:56 AM,52.0,34.0,50,29.75,10.0,WNW,8.1,-,N/A,,Overcast,290,2012-10-09 05:56:00
1:56 AM,48.9,35.1,59,29.75,10.0,Calm,Calm,-,N/A,,Scattered Clouds,0,2012-10-09 06:56:00
2:56 AM,46.9,35.1,63,29.74,10.0,SSW,4.6,-,N/A,,Overcast,200,2012-10-09 07:56:00
3:56 AM,48.0,36.0,63,29.73,10.0,South,3.5,-,N/A,,Overcast,190,2012-10-09 08:56:00
4:56 AM,48.0,39.0,71,29.73,10.0,SSW,4.6,-,N/A,,Overcast,210,2012-10-09 09:56:00
5:56 AM,48.9,43.0,80,29.74,10.0,Calm,Calm,-,N/A,,Overcast,0,2012-10-09 10:56:00
6:56 AM,48.0,44.1,86,29.74,10.0,West,3.5,-,0.00,Rain,Light Rain,270,2012-10-09 11:56:00
7:56 AM,48.0,46.0,93,29.73,10.0,NW,5.8,-,0.01,,Overcast,320,2012-10-09 12:56:00
8:56 AM,48.9,46.0,90,29.73,10.0,SW,4.6,-,0.01,,Overcast,220,2012-10-09 13:56:00
9:34 AM,48.2,46.4,93,29.72,10.0,WSW,8.1,-,0.00,,Overcast,240,2012-10-09 14:34:00
9:47 AM,50.0,46.4,87,29.73,10.0,West,9.2,-,0.00,,Overcast,270,2012-10-09 14:47:00
9:56 AM,48.9,44.1,83,29.73,10.0,WNW,10.4,18.4,0.00,,Overcast,290,2012-10-09 14:56:00
10:32 AM,46.4,39.2,76,29.75,10.0,WNW,12.7,21.9,0.00,Rain,Light Rain,290,2012-10-09 15:32:00
10:56 AM,45.0,37.9,76,29.78,10.0,WNW,13.8,-,0.00,Rain,Light Rain,290,2012-10-09 15:56:00
11:56 AM,42.1,39.0,89,29.80,7.0,West,8.1,16.1,0.05,Rain,Light Rain,270,2012-10-09 16:56:00
12:07 PM,42.8,39.2,87,29.78,6.0,West,9.2,-,0.01,Rain,Light Rain,270,2012-10-09 17:07:00
12:37 PM,41.0,37.4,87,29.78,7.0,West,8.1,-,0.04,Rain,Light Rain,260,2012-10-09 17:37:00
12:51 PM,42.8,37.4,81,29.76,10.0,SSW,9.2,-,0.04,Rain,Light Rain,210,2012-10-09 17:51:00
12:56 PM,42.1,37.9,85,29.78,10.0,SSW,6.9,-,0.04,,Overcast,210,2012-10-09 17:56:00
1:56 PM,44.1,39.0,82,29.77,10.0,SW,8.1,-,N/A,,Clear,230,2012-10-09 18:56:00
2:51 PM,44.6,39.2,81,29.75,10.0,WSW,10.4,-,N/A,,Overcast,240,2012-10-09 19:51:00
2:56 PM,46.0,39.0,76,29.76,10.0,SW,9.2,-,N/A,,Overcast,230,2012-10-09 19:56:00
3:56 PM,46.9,35.1,63,29.77,10.0,West,13.8,23.0,0.00,,Overcast,280,2012-10-09 20:56:00
4:56 PM,46.9,27.0,46,29.79,10.0,West,20.7,27.6,N/A,,Overcast,280,2012-10-09 21:56:00
5:56 PM,46.0,28.9,51,29.81,10.0,West,10.4,-,N/A,,Overcast,280,2012-10-09 22:56:00
6:56 PM,45.0,28.9,53,29.83,10.0,West,12.7,-,N/A,,Overcast,270,2012-10-09 23:56:00
7:56 PM,44.1,30.9,60,29.85,10.0,WNW,11.5,19.6,N/A,,Overcast,300,2012-10-10 00:56:00
8:56 PM,42.1,30.9,65,29.87,10.0,West,13.8,-,N/A,,Scattered Clouds,280,2012-10-10 01:56:00
9:56 PM,41.0,26.1,55,29.89,10.0,NW,15.0,24.2,N/A,,Overcast,310,2012-10-10 02:56:00
10:56 PM,39.0,25.0,57,29.92,10.0,West,11.5,-,N/A,,Mostly Cloudy,280,2012-10-10 03:56:00
11:56 PM,39.0,25.0,57,29.92,10.0,WNW,11.5,-,N/A,,Overcast,290,2012-10-10 04:56:00